Location: Ariel
(45.9570°N, 122.5700°W)
Time: 01:46:48
(UTC-07:00)

Altair - Pass Details

Date: 22 July 2019
Orbit: 1501 x 1683 km, 47.2° (Epoch: 23 August)

Event Time Altitude Azimuth Distance (km) Brightness Sun altitude
Rises 21:14:26 0° 282° (WNW) 4,696 11.5 -4.2°
Reaches altitude 10° 21:21:49 10° 245° (WSW) 3,759 10.0 -5.2°
Maximum altitude 21:22:49 10° 238° (WSW) 3,749 9.8 -5.4°
Drops below altitude 10° 21:23:50 10° 232° (SW) 3,772 9.8 -5.5°
Sets 21:31:26 0° 194° (SSW) 4,810 9.9 -6.6°
